Regional Weather Roundup
Issued by NWS Wakefield, VA

Home | Current Version | Previous Version | Graphics & Text | Print | Product List | Glossary On
Versions: 1 2 3 4 5 6 7 8 9 10 11 12 13 14 15 16 17 18 19 20 21 22 23 24 25 26 27 28 29 30 31 32 33 34 35 36 37 38 39 40 41 42 43 44 45
000
ASUS41 KAKQ 262210
RWRAKQ

REGIONAL WEATHER ROUNDUP
NATIONAL WEATHER SERVICE WAKEFIELD VA
500 PM EST FRI DEC 26 2014

Note: "fair" indicates few or no clouds below 12,000 feet with no
significant weather and/or obstructions to visibility. * = Denotes
station may not report precipitation (e.g., rain,snow,etc.),
thunder or fog.

VAZ042-051-052>054-056-262300-
NORTHERN VIRGINIA

CITY           SKY/WX    TMP DP  RH WIND       PRES   REMARKS
WASH NATIONAL  PTCLDY    48  33  56 S8        30.26S
DULLES         PTCLDY    44  32  62 S3        30.25R
FORT BELVOIR   CLEAR     47  33  57 S2        30.27R
QUANTICO       CLEAR     47  32  56 SW5       30.27S
FREDERICKSBRG* CLEAR     49  33  53 S3        30.25S
STAFFORD*      CLEAR     49  30  47 CALM      30.30S
WARRENTON      CLEAR     45  36  72 CALM      30.25S
CULPEPER*      CLEAR     46  34  61 CALM      30.26S
MANASSAS*      CLEAR     50  34  53 CALM      30.25S
LEESBURG*      CLEAR     46  34  61 S6        30.26R
WINCHESTER     CLEAR     45  28  53 CALM      30.23R
FRONT ROYAL*   CLEAR     46  32  57 CALM      30.21S
LURAY*         CLEAR     52  32  46 S3        30.22S
$$

VAZ048-049-060>072-079>083-262300-
CENTRAL AND SOUTH CENTRAL VIRGINIA

CITY           SKY/WX    TMP DP  RH WIND       PRES   REMARKS
RICHMOND       PTCLDY    52  33  48 SE3       30.26S
CHESTERFIELD*  CLEAR     52  27  37 CALM      30.28R
PETERSBURG*    CLEAR     51  35  53 S3        30.28R
HANOVER        CLEAR     45  38  76 CALM      30.27S
TAPPAHANNOCK*  CLEAR     49  32  51 CALM      30.27F
QUINTON*       CLEAR     49  34  55 S5        30.26F
CHARLOTTSVILLE CLEAR     47  30  51 S5        30.25R
GORDONSVILLE*  CLEAR     45  32  61 CALM      30.26R
ORANGE*        CLEAR     48  32  53 S5        30.27S
LOUISA*        CLEAR     45  36  70 CALM      30.25R
BUMPASS*       CLEAR     46  33  61 CALM      30.25S
FARMVILLE*     CLEAR     53  33  45 CALM      30.25R
CREWE*         CLEAR     53  31  44 CALM      30.27R
FORT PICKETT*  CLEAR     48  34  59 CALM      30.27R
CHASE CITY*    CLEAR     52  37  56 CALM      30.28R
CLARKSVILLE*   CLEAR     52  36  54 CALM      30.27S
SOUTH HILL*    CLEAR     49  37  64 CALM      30.33R
LAWRENCEVILLE* CLEAR     51  37  58 CALM      30.28R
EMPORIA*       CLEAR     45  36  70 CALM      30.30R
$$

VAZ088>098-262300-
SOUTHEAST VIRGINIA

CITY           SKY/WX    TMP DP  RH WIND       PRES   REMARKS
NORFOLK        CLEAR     47  40  76 E5        30.28R
VIRGINIA BEACH PTCLDY    47  40  76 E3        30.28R
NORFOLK NAVAL  PTCLDY    49  40  71 E5        30.30R
WEST POINT*    CLEAR     49  37  61 CALM      30.29S
SALUDA*        FAIR      43  35  74 E3        30.28R
NEWPORT NEWS   CLEAR     48  40  73 E6        30.28R
LANGLEY AFB    CLEAR     46  40  78 SE6       30.29R
FORT EUSTIS    CLEAR     47  46  99 S1        30.27R
WILLIAMSBURG*  CLEAR     52  41  66 CALM      30.29R
HR EXEC AP*    CLEAR     46  36  66 CALM      30.31R
FRANKLIN*      CLEAR     52  34  50 CALM      30.29R
WAKEFIELD      CLEAR     48  40  73 CALM      30.28R
$$

VAZ020-022-025-037-045-262300-
WEST CENTRAL AND SOUTHWEST VIRGINIA

CITY           SKY/WX    TMP DP  RH WIND       PRES   REMARKS
STAUNTON*      CLEAR     51  26  37 CALM      30.25R
WAYNESBORO*    CLEAR     49  21  32 MISG      30.23R
HOT SPRINGS VA PTCLDY    42  19  39 W13       30.21R
LYNCHBURG      PTCLDY    50  28  42 SW5       30.27R
DANVILLE       CLEAR     54  32  43 SW6       30.28R
SOUTH BOSTON*  CLEAR     55  31  40 CALM      30.27S
MARTINSVILLE   CLEAR     54  34  46 CALM      30.28S
ROANOKE        PTCLDY    56  18  22 CALM      30.27R
BLACKSBURG     PTCLDY    45  27  48 CALM      30.29R
DUBLIN*        MOCLDY    52  26  36 CALM      30.27R
MARION*        CLOUDY    51  20  30 W10       30.29R
HILLSVILLE*    MOCLDY    49  28  42 S5        30.27R
RICHLANDS*     PTCLDY    50  18  28 SW5       30.27R
WISE*          MOCLDY    46  25  42 SW6       30.28R
ABINGDON*      PTCLDY    54  12  19 W5        30.28R
$$

MDZ021>025-VAZ099-100-262300-
SOUTHERN MARYLAND AND THE DELMARVA PENINSULA

CITY           SKY/WX    TMP DP  RH WIND       PRES   REMARKS
PATUXENT RIVER PTCLDY    43  33  68 S3        30.27S
BAY BRIDGE APT   N/A     45  32  61 S6        30.26S
LEONARDTOWN    CLEAR     45  32  61 SW3       30.28R
DOVER          CLEAR     46  31  55 SW5       30.24R
GEORGETOWN     CLEAR     49  31  49 W3        30.27R
EASTON         CLEAR     46  36  66 CALM      30.30R
CAMBRIDGE      CLEAR     46  34  61 CALM      30.27R
SALISBURY      CLEAR     48  31  51 SW6       30.28R
OCEAN CITY     CLEAR     44  37  76 SW6       30.28R
WALLOPS ISLAND CLEAR     41  36  82 SW7       30.29R
ACCOMACK*      CLEAR     43  36  75 CALM      30.28S
$$

NCZ012>017-030>032-262300-
NORTH CENTRAL AND EASTERN NORTH CAROLINA

CITY           SKY/WX    TMP DP  RH WIND       PRES   REMARKS
ROANOKE RAPIDS CLEAR     50  36  57 CALM      30.29R
RALEIGH        PTCLDY    53  36  52 CALM      30.29S
ELIZABETH CITY CLEAR     54  35  48 W3        30.28S
AHOSKIE*       CLEAR     49  37  63 CALM      30.30R
EDENTON*       CLEAR     51  39  65 CALM      30.28S
CURRITUCK*     CLEAR     53  34  48 CALM      30.29R
KILL DEVIL HLS CLEAR     49  38  65 CALM      30.27S
MANTEO         CLEAR     48  37  66 CALM      30.29S
CAPE HATTERAS  CLEAR     50  40  68 NW3       30.28S
TARBORO*       CLEAR     55  36  47 CALM      30.30R
GOLDSBORO      CLEAR     54  41  62 W3        30.28R
WASHINGTON     CLEAR     53  36  52 CALM      30.29S
GREENVILLE     CLEAR     55  36  47 CALM      30.30R
NEW BERN       CLEAR     55  38  52 CALM      30.31R
WILMINGTON     CLEAR     56  42  59 CALM      30.29R
$$

VAZ048-262300-
ELSEWHERE

CITY           SKY/WX    TMP DP  RH WIND       PRES   REMARKS
HARRISBURG PA  PTCLDY    42  32  67 CALM      30.21F
BALTIMORE      PTCLDY    49  30  48 S5        30.24R
ANNAPOLIS      CLEAR     44  33  65 S5        30.26R
ANDREWS AFB    CLEAR     47  30  50 SW6       30.25R
PHILADELPHIA   PTCLDY    46  31  55 W8        30.25R
HENDERSON NC   CLEAR     52  32  45 SW3       30.28R
GREENSBORO     PTCLDY    52  33  48 SW3       30.27S
ROCKY MOUNT    CLEAR     51  37  58 CALM      30.30R
$$

VAZ100-262300-
MARINE

STATION/POSITION TIME  TEMP    WIND        PRES    WAVE   SWELL
                       AIR SEA DIR/SP/G            HT/PER HT/PER
                 (UTC) (F)     (DEG/KT/KT) (MB)    (FT/S) (FT/S)
CAPE MAY NJ      2200   45 46     CALM     1024.1S
LEWES DE         2200   50 44  250/  5/  6 1024.4R
15NM E FENWICK I 2200   45 46              1024.8R   2/ 8
OCEAN-CITY-INLET 2200   45 46  220/  9/ 10 1024.8R
WACHAPREAGUE VA  2200   48 49  220/  3/  5 1025.3S
THOMAS POINT MD  2200   44 43  180/ 13/ 13 1025.7R
GOOSES REEF MD   2200   44     VRB 10/ 12  1024.0S
COVE POINT MD    2200   43     190/  9/ 10 1024.8S
SOLOMONS ISLAND  2200      44                N/A
BISHOPS HEAD MD  2200   45 46  200/  5/  5 1024.8S
PINEY POINT MD   2200          160/  7/  7   N/A
POTOMAC MD       2200   45     140/  6/  6 1024.5F
CAMBRIDGE MD     2200   48 43  200/  3/  5 1024.8R
LEWISETTA VA     2200   45 45  110/  4/  5 1024.8F
RAPPAHANNOCK LGT 2200           80/  3/  3 1025.7S
STINGRAY PT      2200   45     120/  4/  4 1025.8R
YORK RVR RNG VA  2200   45     110/  5/  5 1024.8R
YORKTOWN VA      2200   47 46  100/  4/  5 1025.1S
JAMESTOWN VA     2200   51     150/  4/  4   N/A
DOMINION TERM VA 2200   47      70/  7/  8 1025.4R
KIPTOPEKE VA     2200      51  110/  4/  5   N/A
CHES BAY BRIDGE  2200   47 46   60/  6/  6 1025.0R
CAPE HENRY VA    2200   47      70/  4/  5 1024.2R
CHESAPEAKE LGHT  2100   49      80/  6/  6 1025.8R
WILLOUBY STN VA  2200   47     100/  7/  8 1025.8R
S CRANEY ISL VA  2200           70/  5/  6 1025.2R
CAPE HENRY BUOY  2200      49                N/A     2/ 7
1ST LANDING BUOY 2200   47      70/  4/  6 1025.2R
CAPE CHARLES BUO 2200      48                N/A     1/ 8   2/ 8
64NM E OF VA BCH 2200   50 52   20/  2/  4 1025.1R   3/13   2/13
DUCK PIER NC     2200   53 51  250/  6/  7 1024.6S
44100 DUCK FRF   2200      51                N/A     2/13   2/13
44056 DUCK FRF   2200      50                N/A     2/13   2/13
OREGON INLET NC  2200   54 53   40/  2/  3 1025.4S
HATTERAS NC      2200   53 56  310/  9/ 10 1025.7S
DIAMOND SHLS NC  2200   57                 1025.7R   3/ 8
CAPE LOOKOUT NC  2100   56      50/  3/  4 1025.1F
$$


USA.gov is the U.S. government's official web portal to all federal, state and local government web resources and services.